When you browse on this site, cookies collect data to enhance your experience and personalize the content and advertising you see.
Visit our Privacy Policy to learn more. By continuing to use the site, you agree to this use of cookies and data.
  • En España
  • Lista de países
  • Para 7 días
  • Temperatura del agua
  • El tiempo en el mapa
  • Informadores
  • user-avatar
    Iniciar sesión

    Tiempo cada hora Trujillo

    Hoy, 31 Mayo, Domingo

    Tiempo Temperatura Precipitaciones Viento Presión Humedad
    00:00 +19°C° 0.1 mm 1 mps 647 mmHg 84%
    01:00 +17°C° 0.1 mm 0 mps 647 mmHg 84%
    02:00 +17°C° 0 mm 0 mps 647 mmHg 84%
    03:00 +17°C° 0 mm 0 mps 647 mmHg 85%
    04:00 +17°C° 0 mm 0 mps 647 mmHg 85%
    05:00 +18°C° 0 mm 0 mps 647 mmHg 83%
    06:00 +18°C° 0 mm 0 mps 648 mmHg 81%
    07:00 +19°C° 0 mm 0 mps 649 mmHg 78%
    08:00 +23°C° 0.1 mm 1 mps 650 mmHg 76%
    09:00 +24°C° 0.1 mm 1 mps 650 mmHg 74%
    10:00 +25°C° 0.1 mm 1 mps 651 mmHg 72%
    11:00 +25°C° 1.4 mm 1 mps 650 mmHg 76%
    12:00 +24°C° 1.4 mm 1 mps 650 mmHg 81%
    13:00 +24°C° 1.4 mm 1 mps 649 mmHg 85%
    14:00 +23°C° 2 mm 1 mps 648 mmHg 88%
    15:00 +22°C° 2 mm 1 mps 648 mmHg 91%
    16:00 +22°C° 2 mm 1 mps 647 mmHg 94%
    17:00 +21°C° 3.4 mm 1 mps 647 mmHg 95%
    18:00 +20°C° 3.4 mm 1 mps 647 mmHg 97%
    19:00 +20°C° 3.4 mm 1 mps 647 mmHg 98%
    20:00 +20°C° 2.5 mm 1 mps 648 mmHg 96%
    21:00 +19°C° 2.5 mm 1 mps 648 mmHg 95%
    22:00 +18°C° 2.5 mm 2 mps 648 mmHg 94%
    23:00 +18°C° 0.1 mm 2 mps 648 mmHg 92%

    Mañana, 1 Junio, Lunes

    Tiempo Temperatura Precipitaciones Viento Presión Humedad
    00:00 +19°C° 0.1 mm 1 mps 647 mmHg 90%
    01:00 +19°C° 0.1 mm 1 mps 647 mmHg 88%
    02:00 +19°C° 0 mm 1 mps 647 mmHg 87%
    03:00 +19°C° 0 mm 1 mps 647 mmHg 86%
    04:00 +18°C° 0 mm 1 mps 647 mmHg 85%
    05:00 +19°C° 0 mm 1 mps 647 mmHg 83%
    06:00 +20°C° 0 mm 1 mps 648 mmHg 82%
    07:00 +20°C° 0 mm 1 mps 648 mmHg 80%
    08:00 +22°C° 0 mm 1 mps 649 mmHg 76%
    09:00 +23°C° 0 mm 1 mps 650 mmHg 71%
    10:00 +25°C° 0 mm 1 mps 651 mmHg 66%
    11:00 +25°C° 0.5 mm 1 mps 650 mmHg 68%
    12:00 +25°C° 0.5 mm 1 mps 649 mmHg 69%
    13:00 +26°C° 0.5 mm 1 mps 649 mmHg 70%
    14:00 +25°C° 1 mm 1 mps 648 mmHg 75%
    15:00 +24°C° 1 mm 1 mps 647 mmHg 79%
    16:00 +22°C° 1 mm 0 mps 647 mmHg 84%
    17:00 +20°C° 0.4 mm 0 mps 647 mmHg 87%
    18:00 +19°C° 0.4 mm 0 mps 647 mmHg 90%
    19:00 +18°C° 0.4 mm 0 mps 647 mmHg 94%
    20:00 +20°C° 0.1 mm 1 mps 647 mmHg 93%
    21:00 +19°C° 0.1 mm 1 mps 647 mmHg 92%
    22:00 +19°C° 0.1 mm 1 mps 648 mmHg 91%
    23:00 +19°C° 0 mm 1 mps 647 mmHg 90%

    Pasado mañana, 2 Junio, Martes

    Tiempo Temperatura Precipitaciones Viento Presión Humedad
    00:00 +19°C° 0 mm 1 mps 647 mmHg 89%
    01:00 +18°C° 0 mm 1 mps 647 mmHg 89%
    02:00 +18°C° 0 mm 1 mps 647 mmHg 87%
    03:00 +19°C° 0 mm 1 mps 647 mmHg 85%
    04:00 +19°C° 0 mm 1 mps 646 mmHg 83%
    05:00 +20°C° 0 mm 1 mps 647 mmHg 80%
    06:00 +19°C° 0 mm 0 mps 648 mmHg 78%
    07:00 +19°C° 0 mm 0 mps 648 mmHg 76%
    08:00 +23°C° 0.1 mm 1 mps 649 mmHg 72%
    09:00 +24°C° 0.1 mm 1 mps 650 mmHg 69%
    10:00 +26°C° 0.1 mm 1 mps 650 mmHg 66%
    11:00 +25°C° 1.6 mm 1 mps 649 mmHg 72%
    12:00 +25°C° 1.6 mm 1 mps 649 mmHg 79%
    13:00 +24°C° 1.6 mm 1 mps 648 mmHg 85%
    14:00 +24°C° 2.2 mm 1 mps 647 mmHg 88%
    15:00 +21°C° 2.2 mm 0 mps 647 mmHg 92%
    16:00 +20°C° 2.2 mm 0 mps 646 mmHg 95%
    17:00 +19°C° 0.7 mm 0 mps 646 mmHg 95%
    18:00 +19°C° 0.7 mm 0 mps 646 mmHg 95%
    19:00 +18°C° 0.7 mm 0 mps 646 mmHg 96%
    20:00 +18°C° 0.2 mm 0 mps 647 mmHg 95%
    21:00 +20°C° 0.2 mm 1 mps 647 mmHg 95%
    22:00 +20°C° 0.2 mm 1 mps 648 mmHg 94%
    23:00 +19°C° 0 mm 1 mps 647 mmHg 94%

    3 Junio, Miércoles

    Tiempo Temperatura Precipitaciones Viento Presión Humedad
    00:00 +19°C° 0 mm 1 mps 647 mmHg 94%
    01:00 +19°C° 0 mm 1 mps 646 mmHg 93%
    02:00 +19°C° 0 mm 1 mps 646 mmHg 93%
    03:00 +19°C° 0 mm 1 mps 646 mmHg 93%
    04:00 +18°C° 0 mm 1 mps 646 mmHg 93%
    05:00 +19°C° 0 mm 1 mps 646 mmHg 90%
    06:00 +20°C° 0 mm 1 mps 647 mmHg 88%
    07:00 +21°C° 0 mm 1 mps 648 mmHg 86%
    08:00 +22°C° 0.1 mm 1 mps 648 mmHg 79%
    09:00 +24°C° 0.1 mm 1 mps 649 mmHg 71%
    10:00 +26°C° 0.1 mm 1 mps 650 mmHg 64%
    11:00 +26°C° 0.4 mm 1 mps 649 mmHg 67%
    12:00 +26°C° 0.4 mm 1 mps 648 mmHg 69%
    13:00 +25°C° 0.4 mm 1 mps 647 mmHg 72%
    14:00 +25°C° 0.9 mm 1 mps 647 mmHg 77%
    15:00 +24°C° 0.9 mm 1 mps 646 mmHg 83%
    16:00 +21°C° 0.9 mm 0 mps 645 mmHg 88%
    17:00 +22°C° 0.8 mm 1 mps 646 mmHg 90%
    18:00 +21°C° 0.8 mm 1 mps 646 mmHg 93%
    19:00 +20°C° 0.8 mm 1 mps 646 mmHg 95%
    20:00 +20°C° 0.2 mm 1 mps 646 mmHg 94%
    21:00 +20°C° 0.2 mm 1 mps 646 mmHg 94%
    22:00 +19°C° 0.2 mm 1 mps 647 mmHg 93%
    23:00 +19°C° 0 mm 1 mps 646 mmHg 92%

    4 Junio, Jueves

    Tiempo Temperatura Precipitaciones Viento Presión Humedad
    00:00 +19°C° 0 mm 1 mps 646 mmHg 91%
    01:00 +18°C° 0 mm 1 mps 645 mmHg 90%
    02:00 +18°C° 0 mm 1 mps 646 mmHg 89%
    03:00 +18°C° 0 mm 1 mps 646 mmHg 88%
    04:00 +18°C° 0 mm 1 mps 646 mmHg 87%
    05:00 +19°C° 0 mm 1 mps 646 mmHg 85%
    06:00 +20°C° 0 mm 1 mps 647 mmHg 82%
    07:00 +21°C° 0 mm 1 mps 648 mmHg 80%
    08:00 +22°C° 0 mm 1 mps 648 mmHg 74%
    09:00 +24°C° 0 mm 1 mps 649 mmHg 69%
    10:00 +26°C° 0 mm 1 mps 649 mmHg 63%
    11:00 +26°C° 0 mm 1 mps 649 mmHg 63%
    12:00 +26°C° 0 mm 1 mps 648 mmHg 63%
    13:00 +26°C° 0 mm 1 mps 648 mmHg 63%
    14:00 +25°C° 0.1 mm 1 mps 647 mmHg 68%
    15:00 +25°C° 0.1 mm 1 mps 647 mmHg 72%
    16:00 +24°C° 0.1 mm 1 mps 646 mmHg 77%
    17:00 +23°C° 0.3 mm 1 mps 646 mmHg 82%
    18:00 +21°C° 0.3 mm 1 mps 646 mmHg 88%
    19:00 +20°C° 0.3 mm 1 mps 647 mmHg 94%
    20:00 +19°C° 0 mm 1 mps 647 mmHg 91%
    21:00 +19°C° 0 mm 1 mps 647 mmHg 88%
    22:00 +17°C° 0 mm 2 mps 647 mmHg 85%
    23:00 +17°C° 0 mm 2 mps 647 mmHg 79%

    5 Junio, Viernes

    Tiempo Temperatura Precipitaciones Viento Presión Humedad
    00:00 +17°C° 0 mm 2 mps 646 mmHg 74%
    01:00 +16°C° 0 mm 2 mps 646 mmHg 69%
    02:00 +16°C° 0 mm 2 mps 646 mmHg 66%
    03:00 +16°C° 0 mm 2 mps 646 mmHg 64%
    04:00 +16°C° 0 mm 2 mps 646 mmHg 62%
    05:00 +17°C° 0 mm 2 mps 647 mmHg 64%
    06:00 +18°C° 0 mm 2 mps 647 mmHg 67%
    07:00 +20°C° 0 mm 1 mps 648 mmHg 69%
    08:00 +22°C° 0 mm 1 mps 649 mmHg 63%
    09:00 +24°C° 0 mm 1 mps 650 mmHg 57%
    10:00 +27°C° 0 mm 1 mps 650 mmHg 51%
    11:00 +27°C° 0 mm 1 mps 650 mmHg 52%
    12:00 +27°C° 0 mm 1 mps 649 mmHg 52%
    13:00 +28°C° 0 mm 2 mps 649 mmHg 53%
    14:00 +27°C° 0.1 mm 1 mps 648 mmHg 59%
    15:00 +26°C° 0.1 mm 1 mps 648 mmHg 64%
    16:00 +25°C° 0.1 mm 1 mps 647 mmHg 70%
    17:00 +24°C° 0.4 mm 1 mps 647 mmHg 77%
    18:00 +22°C° 0.4 mm 1 mps 647 mmHg 84%
    19:00 +20°C° 0.4 mm 1 mps 647 mmHg 91%
    20:00 +20°C° 0.2 mm 1 mps 647 mmHg 90%
    21:00 +20°C° 0.2 mm 1 mps 647 mmHg 89%
    22:00 +19°C° 0.2 mm 1 mps 648 mmHg 88%
    23:00 +19°C° 0 mm 1 mps 647 mmHg 87%
    Mostrar más